{"data":{"norad_id":67834,"intl_designator":"2026-033P","name":"STARLINK-36655","alt_names":[],"object_type":"PAYLOAD","status":"ACTIVE","operator":null,"country":"US","launch_date":"2026-02-16","launch_site_code":"AFETR","launch_vehicle":null,"mission":null,"orbit_class":"UNKNOWN","rcs_meters":null,"size_class":null,"mass_kg":null,"dimensions":null,"purposes":["comms"],"wikipedia_slug":null,"has_3d_model":false,"image_url":null,"decayed_at":null,"tle_current":{"epoch":"2026-05-25T03:54:40.993344Z","epoch_age_seconds":64277,"freshness":"FRESH","line1":"1 67834U 26033P   26145.16297446  .00006876  00000+0  25912-3 0  9997","line2":"2 67834  43.0017 194.8247 0000498 205.5942 154.4885 15.27583753 16376","mean_motion":15.27583753,"eccentricity":4.98e-5,"inclination_deg":43.0017,"raan_deg":194.8247,"arg_perigee_deg":205.5942,"mean_anomaly_deg":154.4885,"bstar":0.00025912,"rev_number":1637,"period_min":94.266517117114,"perigee_km":482.69617172259,"apogee_km":483.37954473847,"semimajor_km":6861.1748582305,"source":"CELESTRAK","updated_at":"2026-05-25T13:38:21.700134Z"}}}